TimeEST,TemperatureF,Dew PointF,Humidity,Sea Level PressureIn,VisibilityMPH,Wind Direction,Wind SpeedMPH,Gust SpeedMPH,PrecipitationIn,Events,Conditions,WindDirDegrees,DateUTC
12:14 AM,42.8,37.4,81,30.11,10.0,NNE,3.5,-,N/A,,Overcast,30,2013-11-03 04:14:00
12:46 AM,42.8,37.4,81,30.12,10.0,NE,3.5,-,N/A,,Overcast,40,2013-11-03 04:46:00
12:53 AM,43.0,37.0,80,30.13,10.0,North,3.5,-,N/A,,Overcast,10,2013-11-03 04:53:00
1:42 AM,42.8,35.6,76,30.13,10.0,NNE,3.5,-,N/A,,Overcast,30,2013-11-03 05:42:00
1:53 AM,42.1,36.0,79,30.14,10.0,NE,3.5,-,N/A,,Overcast,40,2013-11-03 05:53:00
1:48 AM,42.8,37.4,81,30.16,10.0,ENE,6.9,-,N/A,,Overcast,70,2013-11-03 06:48:00
1:53 AM,41.0,37.9,89,30.17,10.0,East,6.9,-,N/A,,Overcast,80,2013-11-03 06:53:00
2:02 AM,41.0,37.4,87,30.16,10.0,East,9.2,-,N/A,,Overcast,80,2013-11-03 07:02:00
2:15 AM,41.0,37.4,87,30.17,10.0,East,6.9,-,N/A,,Overcast,90,2013-11-03 07:15:00
2:53 AM,39.9,36.0,86,30.19,10.0,East,6.9,-,N/A,,Overcast,90,2013-11-03 07:53:00
3:09 AM,39.2,35.6,87,30.18,10.0,East,8.1,-,N/A,,Overcast,90,2013-11-03 08:09:00
3:53 AM,39.0,34.0,82,30.22,10.0,East,4.6,-,N/A,,Mostly Cloudy,90,2013-11-03 08:53:00
4:53 AM,36.0,33.1,89,30.25,10.0,East,5.8,-,N/A,,Clear,90,2013-11-03 09:53:00
5:53 AM,35.1,32.0,89,30.26,10.0,East,4.6,-,N/A,,Scattered Clouds,100,2013-11-03 10:53:00
6:53 AM,36.0,33.1,89,30.28,10.0,ESE,4.6,-,N/A,,Overcast,120,2013-11-03 11:53:00
7:53 AM,37.9,34.0,86,30.31,10.0,East,4.6,-,N/A,,Overcast,100,2013-11-03 12:53:00
8:53 AM,39.9,34.0,79,30.33,10.0,SE,4.6,-,N/A,,Mostly Cloudy,130,2013-11-03 13:53:00
9:53 AM,41.0,33.1,73,30.35,10.0,SE,10.4,-,N/A,,Overcast,130,2013-11-03 14:53:00
10:53 AM,44.1,33.1,65,30.36,10.0,ESE,8.1,-,N/A,,Overcast,120,2013-11-03 15:53:00
11:53 AM,46.9,34.0,61,30.35,10.0,ESE,11.5,-,N/A,,Clear,110,2013-11-03 16:53:00
12:53 PM,48.9,35.1,59,30.33,10.0,SE,10.4,-,N/A,,Clear,130,2013-11-03 17:53:00
1:53 PM,50.0,33.1,52,30.32,10.0,ESE,9.2,-,N/A,,Clear,110,2013-11-03 18:53:00
2:53 PM,48.9,33.1,54,30.32,10.0,ESE,8.1,-,N/A,,Scattered Clouds,120,2013-11-03 19:53:00
3:53 PM,48.9,34.0,56,30.32,10.0,SE,4.6,-,N/A,,Mostly Cloudy,130,2013-11-03 20:53:00
4:53 PM,48.0,34.0,58,30.32,10.0,SE,5.8,-,N/A,,Overcast,130,2013-11-03 21:53:00
5:53 PM,46.0,34.0,63,30.33,10.0,SE,6.9,-,N/A,,Overcast,130,2013-11-03 22:53:00
6:53 PM,45.0,34.0,65,30.34,10.0,ESE,5.8,-,N/A,,Overcast,110,2013-11-03 23:53:00
7:53 PM,44.1,34.0,68,30.34,10.0,ESE,9.2,-,N/A,,Mostly Cloudy,110,2013-11-04 00:53:00
8:53 PM,45.0,34.0,65,30.35,10.0,ESE,8.1,-,N/A,,Overcast,110,2013-11-04 01:53:00
9:53 PM,42.1,33.1,70,30.36,10.0,ESE,5.8,-,N/A,,Clear,110,2013-11-04 02:53:00
10:53 PM,39.9,33.1,77,30.38,10.0,ESE,9.2,-,N/A,,Clear,120,2013-11-04 03:53:00